OBJECT T, 57183

Orbit data source: Space-Track

You're viewing an Uncataloged Satellite

Recently launched and/or uncataloged satellites may have evolving metadata. Metadata may include but not limited to: Owner, Maufacturer, Bus, Motor, and Mission.

OBJECT T, 57183 is a satellite in SSO that was launched on Tue, 27 Jun 2023 UTC via a SOYUZ-2-1B launch vehicle from the Vostochny Cosmodrome (VOSTO). Unknown objects in Earth's orbit typically refer to objects detected orbiting the Earth but have not yet been identified or cataloged. These objects could be anything from previously untracked satellites, spent rocket stages, debris from satellite collisions, or even natural meteoroids temporarily captured by Earth's gravity.

Loading next visibility...
Identifier
57183, 2023-091T
Orbit
SSO
Country
Flag of TBDTBD
Related business
None
Manufacturer
Unknown
Mission
Operational Commercial Communications
Bus & Motor
Unknown
Mass
Unknown
Launch date (UTC)
2023-06-27 (3 years ago)
Launch vehicle
SOYUZ-2-1B
Launch site
Vostochny Cosmodrome (VOSTO)
Object type
Unknown
Shape & HBR
Box + 2 Pan, 1.5 m
Radar Cross Section
1.055 m², Medium (>0.1 m² and < 1m²)

Expand to show TLE details & history
Last TLE update: 14 hours ago

TLE from 14 hours ago
0 OBJECT T
1 57183U 23091T   26162.93351683  .00004224  00000-0  20514-3 0  9991
2 57183  97.5095 221.5934 0012607 125.1119 235.1299 15.18941976163173
Epoch: 2026-06-11T22:24Z
TLE epoch observation values (Epoch: 2026-06-11T22:24:15.854Z)
Latitude
Longitude
-14.74286°
Altitude
517.095 km
Speed
7.602 km/s
True Right ascension
14h 46m 22s
True Declination
0° 00' 00"
Sunlit
Object was in full shadow at epoch
Visualization orbit readout
Latitude
Unknown
Longitude
Unknown
Altitude
Unknown
Speed
Unknown
Apparent Right ascension
Unknown
Apparent Declination
Unknown
Sunlit
N/A
Visualization observer readout
Local Sidereal Time
23:08:23
Azimuth
Unknown
Elevation
Unknown
Doppler factor
Unknown
Orbital elements
Apogee altitude
514.687 km
Perigee altitude
497.33 km
Semi-major axis
6,884.146 km
Eccentricity
0.00126
Inclination
97.5095°
RAAN
221.5934°
Arg. of periapsis
125.1119°
True anomaly
235.01148°
Mean anomaly
235.1299°
Eccentric anomaly
235.07068°
Mean motion
3.79986 °/min
Orbital period
94.74 mins
BSTAR
0.00020514
Loading maneuver chart data...
Computing Atmospheric mass density...
Loading historical data...
Loading historical data...
Loading historical data...
Loading historical data...
Loading historical data...
Loading historical data...
Loading historical data...

Documentation

Showing up to 5 results
|